Location: Falniów
(50.3639°N, 19.9642°E)
Time: 12:55:16
(UTC+00:00)

Cosmos 2082 Rocket - Pass Details

Date: 27 April 2026
Orbit: 831 x 853 km, 71.0° (Epoch: 19 May)

Event Time Altitude Azimuth Distance (km) Brightness Sun altitude
Exits shadow 23:30:32 38° 258° (WSW) 1,285 2.9 -24.5°
Maximum altitude 23:32:18 51° 307° (NW) 1,071 2.8 -24.4°
Drops below altitude 10° 23:37:53 10° 23° (NNE) 2,493 5.7 -24.2°
Sets 23:40:25 0° 28° (NNE) 3,431 6.7 -24.1°
